�������l�o���
Date,Time,MP-1(��Sv/h),MP-2(��Sv/h),MP-3(��Sv/h),MP-4(��Sv/h),MP-5(��Sv/h),MP-6(��Sv/h),MP-7(��Sv/h),MP-8(��Sv/h),����,����(m/s),���J
2022/01/21,00:00,0.582,0.873,0.554,1.075,0.751,0.351,0.612,0.582,�k��,7.6,��
2022/01/21,00:10,0.581,0.873,0.553,1.075,0.753,0.350,0.612,0.582,�k��,7.7,��
2022/01/21,00:20,0.581,0.874,0.555,1.073,0.751,0.351,0.612,0.582,�k��,8.0,��
2022/01/21,00:30,0.582,0.872,0.555,1.075,0.752,0.351,0.613,0.582,�k��,7.1,��
2022/01/21,00:40,0.580,0.873,0.554,1.073,0.751,0.351,0.613,0.581,�k��,6.7,��
2022/01/21,00:50,0.582,0.872,0.554,1.075,0.751,0.350,0.612,0.581,�k��,6.9,��
2022/01/21,01:00,0.581,0.873,0.555,1.074,0.752,0.350,0.611,0.582,�k��,6.9,��
2022/01/21,01:10,0.581,0.873,0.556,1.073,0.752,0.350,0.612,0.582,�k��,6.5,��
2022/01/21,01:20,0.580,0.871,0.554,1.076,0.753,0.350,0.611,0.581,�k��,5.7,��
2022/01/21,01:30,0.582,0.871,0.553,1.075,0.752,0.352,0.613,0.580,�k��,6.7,��
2022/01/21,01:40,0.582,0.871,0.555,1.074,0.751,0.350,0.612,0.582,�k��,8.5,��
2022/01/21,01:50,0.580,0.872,0.554,1.074,0.751,0.351,0.612,0.581,�k��,7.8,��
2022/01/21,02:00,0.582,0.872,0.554,1.076,0.751,0.351,0.611,0.579,���k��,8.4,��
2022/01/21,02:10,0.581,0.873,0.553,1.074,0.753,0.351,0.611,0.582,�k��,10.2,��
2022/01/21,02:20,0.582,0.873,0.554,1.073,0.752,0.350,0.610,0.582,���k��,12.0,��
2022/01/21,02:30,0.582,0.872,0.552,1.073,0.754,0.350,0.613,0.579,���k��,11.8,��
2022/01/21,02:40,0.582,0.873,0.552,1.072,0.751,0.351,0.611,0.581,�k��,10.2,��
2022/01/21,02:50,0.581,0.874,0.553,1.074,0.752,0.349,0.612,0.580,�k��,8.8,��
2022/01/21,03:00,0.580,0.872,0.551,1.074,0.751,0.350,0.611,0.582,�k��,8.7,��
2022/01/21,03:10,0.582,0.872,0.551,1.073,0.752,0.350,0.610,0.580,�k��,8.9,��
2022/01/21,03:20,0.580,0.871,0.553,1.074,0.752,0.349,0.609,0.581,�k��,7.6,��
2022/01/21,03:30,0.579,0.870,0.552,1.075,0.749,0.350,0.610,0.581,�k��,8.5,��
2022/01/21,03:40,0.580,0.872,0.552,1.074,0.749,0.350,0.612,0.581,�k��,6.9,��
2022/01/21,03:50,0.581,0.871,0.553,1.076,0.750,0.351,0.610,0.582,���k��,7.5,��
2022/01/21,04:00,0.579,0.871,0.554,1.074,0.751,0.350,0.611,0.581,���k��,6.4,��
2022/01/21,04:10,0.581,0.872,0.554,1.073,0.751,0.352,0.612,0.581,���k��,7.7,��
2022/01/21,04:20,0.579,0.871,0.553,1.073,0.752,0.350,0.611,0.581,���k��,7.2,��
2022/01/21,04:30,0.580,0.872,0.553,1.072,0.750,0.350,0.611,0.580,���k��,7.8,��
2022/01/21,04:40,0.579,0.872,0.553,1.074,0.751,0.350,0.611,0.582,�k��,5.7,��
2022/01/21,04:50,0.579,0.874,0.554,1.073,0.751,0.351,0.611,0.581,�k��,7.9,��
2022/01/21,05:00,0.581,0.869,0.555,1.075,0.751,0.350,0.611,0.580,�k��,6.7,��
2022/01/21,05:10,0.581,0.869,0.554,1.074,0.751,0.350,0.611,0.581,�k��,5.7,��
2022/01/21,05:20,0.579,0.872,0.554,1.073,0.751,0.350,0.610,0.580,�k��,8.7,��
2022/01/21,05:30,0.580,0.871,0.556,1.073,0.749,0.350,0.610,0.581,�k��,7.1,��
2022/01/21,05:40,0.580,0.872,0.554,1.072,0.750,0.351,0.612,0.581,�k��,7.0,��
2022/01/21,05:50,0.580,0.869,0.553,1.074,0.751,0.350,0.611,0.580,�k��,6.7,��
2022/01/21,06:00,0.581,0.872,0.552,1.076,0.751,0.351,0.612,0.582,�k��,9.7,��
2022/01/21,06:10,0.581,0.870,0.554,1.073,0.749,0.351,0.612,0.581,�k��,9.4,��
2022/01/21,06:20,0.580,0.871,0.553,1.075,0.747,0.349,0.612,0.581,�k��,7.9,��
2022/01/21,06:30,0.580,0.871,0.553,1.074,0.749,0.349,0.609,0.581,�k��,6.2,��
2022/01/21,06:40,0.579,0.873,0.553,1.073,0.749,0.350,0.612,0.581,�k��,4.7,��
2022/01/21,06:50,0.578,0.872,0.553,1.074,0.750,0.350,0.610,0.579,�k��,5.4,��
2022/01/21,07:00,0.580,0.871,0.554,1.073,0.749,0.351,0.612,0.581,���k��,4.6,��
2022/01/21,07:10,0.579,0.871,0.553,1.073,0.751,0.350,0.612,0.581,�k��,4.0,��
2022/01/21,07:20,0.580,0.872,0.553,1.073,0.750,0.349,0.611,0.581,�k��,4.0,��
2022/01/21,07:30,0.579,0.871,0.552,1.074,0.751,0.349,0.609,0.580,�k��,5.9,��
2022/01/21,07:40,0.579,0.872,0.556,1.074,0.751,0.349,0.611,0.581,�k��,6.2,��
2022/01/21,07:50,0.580,0.871,0.552,1.072,0.749,0.348,0.611,0.582,���k��,5.0,��
2022/01/21,08:00,0.581,0.870,0.553,1.071,0.751,0.351,0.612,0.580,���k��,5.9,��
2022/01/21,08:10,0.580,0.872,0.552,1.075,0.751,0.350,0.611,0.580,���k��,5.0,��
2022/01/21,08:20,0.580,0.871,0.554,1.072,0.750,0.349,0.611,0.580,���k��,6.0,��
2022/01/21,08:30,0.581,0.871,0.553,1.074,0.753,0.349,0.611,0.579,���k��,5.3,��
2022/01/21,08:40,0.581,0.869,0.553,1.073,0.748,0.349,0.611,0.581,���k��,6.1,��
2022/01/21,08:50,0.582,0.868,0.553,1.073,0.751,0.351,0.610,0.580,���k��,6.8,��
2022/01/21,09:00,0.581,0.868,0.554,1.075,0.750,0.350,0.612,0.580,�k��,7.3,��
2022/01/21,09:10,0.581,0.868,0.555,1.074,0.749,0.349,0.612,0.581,�k��,6.1,��
2022/01/21,09:20,0.581,0.867,0.555,1.074,0.750,0.349,0.613,0.579,�k��,7.7,��
2022/01/21,09:30,0.581,0.870,0.553,1.075,0.749,0.350,0.612,0.582,���k��,7.8,��
2022/01/21,09:40,0.580,0.871,0.555,1.074,0.749,0.350,0.612,0.580,�k��,6.3,��
2022/01/21,09:50,0.582,0.870,0.555,1.072,0.750,0.350,0.613,0.581,�k��,8.4,��
2022/01/21,10:00,0.583,0.872,0.554,1.076,0.749,0.351,0.611,0.582,�k��,4.4,��
2022/01/21,10:10,0.582,0.869,0.555,1.075,0.749,0.351,0.611,0.580,�k��,5.3,��
2022/01/21,10:20,0.583,0.871,0.555,1.073,0.751,0.351,0.611,0.581,���k��,5.0,��
2022/01/21,10:30,0.582,0.869,0.555,1.074,0.746,0.351,0.611,0.581,�k��,6.0,��
2022/01/21,10:40,0.582,0.870,0.555,1.077,0.748,0.351,0.611,0.581,���k��,5.2,��
2022/01/21,10:50,0.582,0.866,0.557,1.073,0.751,0.351,0.612,0.581,�k��,6.4,��
2022/01/21,11:00,0.581,0.871,0.556,1.075,0.750,0.350,0.611,0.581,�k��,6.5,��
2022/01/21,11:10,0.582,0.868,0.556,1.075,0.751,0.351,0.610,0.582,�k��,8.7,��
2022/01/21,11:20,0.584,0.867,0.555,1.076,0.752,0.349,0.612,0.580,���k��,10.3,��
2022/01/21,11:30,0.582,0.869,0.554,1.075,0.751,0.352,0.611,0.581,�k��,9.4,��
2022/01/21,11:40,0.583,0.868,0.554,1.075,0.750,0.351,0.612,0.581,�k��,9.2,��
2022/01/21,11:50,0.582,0.869,0.556,1.074,0.752,0.350,0.611,0.582,�k��,9.4,��
2022/01/21,12:00,0.581,0.870,0.555,1.076,0.752,0.350,0.612,0.582,�k��,12.4,��
2022/01/21,12:10,0.583,0.867,0.554,1.075,0.752,0.352,0.610,0.582,�k��,9.5,��
2022/01/21,12:20,0.582,0.869,0.556,1.077,0.754,0.350,0.612,0.583,�k��,9.0,��
2022/01/21,12:30,0.582,0.869,0.556,1.075,0.753,0.352,0.612,0.583,���k��,11.9,��
2022/01/21,12:40,0.583,0.871,0.556,1.078,0.754,0.351,0.611,0.584,���k��,9.7,��
2022/01/21,12:50,0.583,0.870,0.555,1.075,0.751,0.351,0.611,0.581,�k��,13.0,��
2022/01/21,13:00,0.582,0.868,0.554,1.075,0.752,0.350,0.614,0.583,�k��,10.0,��
2022/01/21,13:10,0.585,0.866,0.555,1.076,0.752,0.351,0.614,0.584,�k��,7.5,��
2022/01/21,13:20,0.584,0.867,0.558,1.075,0.753,0.351,0.614,0.584,�k��,11.7,��
2022/01/21,13:30,0.583,0.865,0.557,1.077,0.753,0.352,0.613,0.583,���k��,9.4,��
2022/01/21,13:40,0.585,0.869,0.556,1.077,0.755,0.350,0.613,0.583,���k��,8.4,��
2022/01/21,13:50,0.582,0.867,0.556,1.076,0.752,0.352,0.612,0.582,�k��,10.0,��
2022/01/21,14:00,0.583,0.870,0.557,1.076,0.752,0.351,0.612,0.583,�k��,8.5,��
2022/01/21,14:10,0.584,0.871,0.555,1.078,0.754,0.350,0.614,0.584,�k��,7.0,��
2022/01/21,14:20,0.582,0.873,0.556,1.076,0.753,0.351,0.613,0.582,�k��,6.3,��
2022/01/21,14:30,0.585,0.871,0.555,1.079,0.755,0.351,0.614,0.582,���k��,6.6,��
2022/01/21,14:40,0.583,0.870,0.555,1.077,0.754,0.350,0.611,0.584,�k��,6.8,��
2022/01/21,14:50,0.584,0.870,0.556,1.077,0.753,0.352,0.613,0.584,�k��,6.6,��
2022/01/21,15:00,0.586,0.872,0.558,1.075,0.755,0.352,0.613,0.584,�k�k��,8.9,��
2022/01/21,15:10,0.585,0.871,0.556,1.075,0.755,0.352,0.613,0.583,���k��,7.5,��
2022/01/21,15:20,0.585,0.872,0.557,1.077,0.755,0.350,0.614,0.583,���k��,8.9,��
2022/01/21,15:30,0.585,0.870,0.557,1.077,0.755,0.351,0.614,0.584,���k��,8.1,��
2022/01/21,15:40,0.585,0.875,0.556,1.076,0.756,0.352,0.612,0.582,���k��,9.4,��
2022/01/21,15:50,0.584,0.872,0.555,1.077,0.754,0.350,0.614,0.583,���k��,9.4,��
2022/01/21,16:00,0.584,0.871,0.555,1.078,0.755,0.351,0.613,0.584,���k��,9.9,��
2022/01/21,16:10,0.585,0.874,0.555,1.077,0.754,0.351,0.613,0.582,���k��,10.5,��
2022/01/21,16:20,0.584,0.873,0.553,1.076,0.755,0.351,0.611,0.582,���k��,10.9,��
2022/01/21,16:30,0.584,0.873,0.553,1.078,0.754,0.350,0.613,0.582,�k��,7.9,��
2022/01/21,16:40,0.582,0.873,0.554,1.079,0.754,0.350,0.613,0.584,�k��,7.6,��
2022/01/21,16:50,0.584,0.874,0.554,1.078,0.754,0.348,0.611,0.582,�k��,7.8,��
2022/01/21,17:00,0.584,0.873,0.553,1.077,0.755,0.347,0.612,0.583,���k��,8.9,��
2022/01/21,17:10,0.582,0.872,0.553,1.076,0.754,0.349,0.610,0.582,���k��,10.4,��
2022/01/21,17:20,0.582,0.874,0.553,1.078,0.755,0.349,0.612,0.582,�k��,9.8,��
2022/01/21,17:30,0.583,0.872,0.553,1.077,0.753,0.349,0.611,0.583,�k��,8.0,��
2022/01/21,17:40,0.582,0.873,0.554,1.079,0.753,0.349,0.613,0.581,�k��,6.9,��
2022/01/21,17:50,0.583,0.872,0.553,1.076,0.755,0.349,0.612,0.583,�k��,8.1,��
2022/01/21,18:00,0.583,0.872,0.553,1.077,0.753,0.350,0.612,0.583,�k��,6.9,��
2022/01/21,18:10,0.583,0.873,0.554,1.076,0.754,0.349,0.609,0.583,�k��,7.0,��
2022/01/21,18:20,0.583,0.873,0.555,1.075,0.753,0.350,0.611,0.582,�k��,6.6,��
2022/01/21,18:30,0.581,0.872,0.554,1.078,0.753,0.351,0.611,0.584,�k��,5.6,��
2022/01/21,18:40,0.582,0.872,0.556,1.078,0.753,0.350,0.610,0.582,�k��,6.2,��
2022/01/21,18:50,0.582,0.873,0.556,1.076,0.753,0.350,0.611,0.583,�k��,4.3,��
2022/01/21,19:00,0.582,0.873,0.555,1.075,0.752,0.350,0.610,0.581,�k��,4.8,��
2022/01/21,19:10,0.582,0.874,0.555,1.076,0.755,0.351,0.612,0.582,�k��,4.2,��
2022/01/21,19:20,0.584,0.875,0.553,1.077,0.755,0.352,0.610,0.582,�k��,6.3,��
2022/01/21,19:30,0.582,0.875,0.552,1.078,0.755,0.351,0.612,0.579,�k��,7.1,��
2022/01/21,19:40,0.582,0.875,0.554,1.075,0.754,0.350,0.612,0.583,�k��,6.6,��
2022/01/21,19:50,0.583,0.874,0.554,1.078,0.752,0.350,0.612,0.582,�k��,8.3,��
2022/01/21,20:00,0.582,0.873,0.552,1.078,0.754,0.351,0.611,0.581,�k��,7.5,��
2022/01/21,20:10,0.582,0.873,0.555,1.075,0.754,0.351,0.610,0.581,�k��,5.8,��
2022/01/21,20:20,0.582,0.872,0.553,1.076,0.754,0.351,0.610,0.581,�k��,5.3,��
2022/01/21,20:30,0.583,0.875,0.554,1.076,0.755,0.351,0.613,0.581,�k��,6.0,��
2022/01/21,20:40,0.580,0.874,0.555,1.077,0.753,0.350,0.612,0.581,�k�k��,5.3,��
2022/01/21,20:50,0.582,0.873,0.555,1.076,0.753,0.350,0.610,0.581,�k�k��,5.1,��
2022/01/21,21:00,0.583,0.874,0.553,1.076,0.754,0.350,0.610,0.581,�k��,4.0,��
2022/01/21,21:10,0.581,0.873,0.554,1.076,0.753,0.351,0.612,0.580,�k��,3.4,��
2022/01/21,21:20,0.584,0.871,0.554,1.076,0.753,0.349,0.611,0.581,�k��,4.1,��
2022/01/21,21:30,0.581,0.873,0.553,1.075,0.751,0.349,0.611,0.582,�k��,4.7,��
2022/01/21,21:40,0.581,0.873,0.554,1.075,0.753,0.350,0.611,0.581,�k��,4.6,��
2022/01/21,21:50,0.582,0.873,0.555,1.074,0.753,0.350,0.610,0.581,�k��,5.7,��
2022/01/21,22:00,0.581,0.872,0.554,1.076,0.753,0.352,0.610,0.581,�k�k��,5.5,��
2022/01/21,22:10,0.581,0.872,0.554,1.075,0.752,0.350,0.611,0.579,�k�k��,6.5,��
2022/01/21,22:20,0.581,0.872,0.553,1.077,0.754,0.348,0.611,0.581,�k��,7.9,��
2022/01/21,22:30,0.582,0.873,0.556,1.075,0.752,0.351,0.612,0.581,�k��,7.4,��
2022/01/21,22:40,0.581,0.873,0.555,1.077,0.753,0.350,0.611,0.580,�k�k��,7.0,��
2022/01/21,22:50,0.581,0.873,0.552,1.076,0.753,0.350,0.611,0.580,�k��,7.5,��
2022/01/21,23:00,0.582,0.871,0.554,1.077,0.753,0.349,0.609,0.581,�k��,6.5,��
2022/01/21,23:10,0.582,0.873,0.556,1.077,0.751,0.349,0.611,0.580,�k��,5.6,��
2022/01/21,23:20,0.582,0.873,0.553,1.076,0.752,0.349,0.610,0.580,�k��,6.6,��
2022/01/21,23:30,0.582,0.874,0.555,1.076,0.753,0.349,0.611,0.580,�k��,5.9,��
2022/01/21,23:40,0.579,0.874,0.553,1.076,0.753,0.348,0.610,0.580,�k�k��,6.1,��
2022/01/21,23:50,0.581,0.872,0.553,1.076,0.751,0.350,0.611,0.580,�k��,6.9,��
